AAL657 KCLT-KJFK

Flight info

Callsign AAL657
Flight time 1h 14m
Altitude 39000
Route BARMY5 TYI Q64 SAWED Q108 SIE CAMRN5
Aircraft A319/M-SDE3FGHIRWY/LB1

Departure

Time 2026-05-08 22:08
Airport Charlotte Douglas International Airport (KCLT)

Arrival

Time 2026-05-08 23:23
Airport John F. Kennedy International Airport (KJFK)
Time Latitude Longitude Altitude Speed Heading
2026-05-08 21:50 35.21795 -80.94273 755 ft 0 kts 72°
2026-05-08 22:00 35.21793 -80.94279 755 ft 2 kts 72°
2026-05-08 22:00 35.21789 -80.94296 755 ft 2 kts 73°
2026-05-08 22:00 35.21787 -80.94315 755 ft 2 kts 98°
2026-05-08 22:01 35.21792 -80.94331 755 ft 2 kts 120°
2026-05-08 22:01 35.21801 -80.94346 755 ft 2 kts 143°
2026-05-08 22:01 35.21811 -80.94353 755 ft 0 kts 159°
2026-05-08 22:01 35.21814 -80.94354 755 ft 0 kts 160°
2026-05-08 22:03 35.21814 -80.94353 755 ft 0 kts 160°
2026-05-08 22:03 35.21807 -80.94350 755 ft 0 kts 161°
2026-05-08 22:03 35.21787 -80.94347 755 ft 4 kts 176°
2026-05-08 22:04 35.21764 -80.94345 755 ft 7 kts 176°
2026-05-08 22:04 35.21732 -80.94343 755 ft 10 kts 176°
2026-05-08 22:04 35.21660 -80.94336 755 ft 5 kts 155°
2026-05-08 22:04 35.21648 -80.94275 755 ft 9 kts 95°
2026-05-08 22:05 35.21651 -80.94184 755 ft 12 kts 56°
2026-05-08 22:05 35.21716 -80.94098 755 ft 15 kts 47°
2026-05-08 22:05 35.21770 -80.94009 755 ft 13 kts 57°
2026-05-08 22:05 35.21832 -80.93908 755 ft 16 kts 50°
2026-05-08 22:06 35.21911 -80.93798 755 ft 18 kts 48°
2026-05-08 22:06 35.22009 -80.93710 755 ft 18 kts 359°
2026-05-08 22:06 35.22138 -80.93722 755 ft 19 kts 356°
2026-05-08 22:06 35.22272 -80.93733 755 ft 19 kts 356°
2026-05-08 22:07 35.22403 -80.93745 755 ft 18 kts 355°
2026-05-08 22:07 35.22496 -80.93748 755 ft 8 kts 46°
2026-05-08 22:07 35.22507 -80.93666 755 ft 11 kts 87°
2026-05-08 22:07 35.22441 -80.93612 755 ft 20 kts 178°
2026-05-08 22:08 35.22051 -80.93580 756 ft 94 kts 176°
2026-05-08 22:08 35.21171 -80.93504 760 ft 157 kts 176°
2026-05-08 22:08 35.19986 -80.93404 1162 ft 178 kts 176°
2026-05-08 22:08 35.18773 -80.93281 2013 ft 176 kts 175°
2026-05-08 22:09 35.17607 -80.93149 2956 ft 170 kts 175°
2026-05-08 22:09 35.16386 -80.93007 3540 ft 185 kts 175°
2026-05-08 22:09 35.15080 -80.92648 4030 ft 206 kts 151°
2026-05-08 22:09 35.14111 -80.91259 4490 ft 234 kts 109°
2026-05-08 22:10 35.14059 -80.89237 5060 ft 255 kts 77°
2026-05-08 22:10 35.14626 -80.87086 5672 ft 273 kts 70°
2026-05-08 22:10 35.15267 -80.84845 6367 ft 287 kts 71°
2026-05-08 22:10 35.15869 -80.82516 7222 ft 293 kts 73°
2026-05-08 22:11 35.16428 -80.80112 8046 ft 300 kts 73°
2026-05-08 22:11 35.16960 -80.77646 8846 ft 307 kts 73°
2026-05-08 22:11 35.17484 -80.75093 9656 ft 313 kts 74°
2026-05-08 22:11 35.18005 -80.72497 10422 ft 321 kts 74°
2026-05-08 22:12 35.18540 -80.69797 10926 ft 338 kts 74°
2026-05-08 22:12 35.19103 -80.66922 11351 ft 356 kts 74°
2026-05-08 22:12 35.19694 -80.63886 11812 ft 372 kts 74°
2026-05-08 22:12 35.20296 -80.60777 12495 ft 380 kts 74°
2026-05-08 22:13 35.20897 -80.57642 13236 ft 384 kts 74°
2026-05-08 22:13 35.21505 -80.54478 13959 ft 389 kts 74°
2026-05-08 22:13 35.22132 -80.51221 14630 ft 396 kts 73°
2026-05-08 22:13 35.22765 -80.47922 15274 ft 402 kts 73°
2026-05-08 22:14 35.23399 -80.44615 15922 ft 408 kts 73°
2026-05-08 22:14 35.24052 -80.41206 16526 ft 414 kts 73°
2026-05-08 22:14 35.24710 -80.37756 17112 ft 420 kts 73°
2026-05-08 22:14 35.25377 -80.34252 17714 ft 426 kts 74°
2026-05-08 22:15 35.26046 -80.30756 18252 ft 431 kts 74°
2026-05-08 22:15 35.26718 -80.27240 18791 ft 437 kts 74°
2026-05-08 22:15 35.27410 -80.23595 19285 ft 443 kts 74°
2026-05-08 22:15 35.28100 -80.19946 19829 ft 447 kts 74°
2026-05-08 22:16 35.28812 -80.16177 20368 ft 452 kts 74°
2026-05-08 22:16 35.29514 -80.12451 20869 ft 456 kts 73°
2026-05-08 22:16 35.30353 -80.08702 21334 ft 461 kts 69°
2026-05-08 22:16 35.31377 -80.04993 21794 ft 465 kts 67°
2026-05-08 22:17 35.32482 -80.01234 22278 ft 469 kts 66°
2026-05-08 22:17 35.33599 -79.97484 22763 ft 472 kts 66°
2026-05-08 22:17 35.34721 -79.93693 22997 ft 474 kts 66°
2026-05-08 22:17 35.35843 -79.89870 23001 ft 472 kts 66°
2026-05-08 22:18 35.36947 -79.86092 23001 ft 473 kts 66°
2026-05-08 22:18 35.38049 -79.82295 23004 ft 472 kts 66°
2026-05-08 22:18 35.39145 -79.78529 23002 ft 472 kts 65°
2026-05-08 22:18 35.40242 -79.74750 22998 ft 472 kts 66°
2026-05-08 22:19 35.41348 -79.70940 23190 ft 479 kts 66°
2026-05-08 22:19 35.42462 -79.67110 23708 ft 481 kts 66°
2026-05-08 22:19 35.43577 -79.63246 24170 ft 486 kts 66°
2026-05-08 22:19 35.44717 -79.59292 24558 ft 492 kts 65°
2026-05-08 22:20 35.45858 -79.55351 24973 ft 496 kts 65°
2026-05-08 22:20 35.47014 -79.51331 25401 ft 501 kts 65°
2026-05-08 22:20 35.48174 -79.47318 25755 ft 507 kts 65°
2026-05-08 22:20 35.49359 -79.43191 26128 ft 513 kts 66°
2026-05-08 22:21 35.50544 -79.39083 26502 ft 519 kts 66°
2026-05-08 22:21 35.51738 -79.34892 26897 ft 524 kts 66°
2026-05-08 22:21 35.52932 -79.30707 27234 ft 529 kts 66°
2026-05-08 22:21 35.54173 -79.26356 27603 ft 533 kts 65°
2026-05-08 22:22 35.55397 -79.22074 28033 ft 536 kts 65°
2026-05-08 22:22 35.56644 -79.17701 28381 ft 541 kts 66°
2026-05-08 22:22 35.57872 -79.13377 28708 ft 546 kts 66°
2026-05-08 22:22 35.59135 -79.08920 29049 ft 551 kts 66°
2026-05-08 22:23 35.60389 -79.04502 29346 ft 556 kts 65°
2026-05-08 22:23 35.61682 -78.99956 29703 ft 561 kts 65°
2026-05-08 22:23 35.62969 -78.95452 30079 ft 565 kts 64°
2026-05-08 22:23 35.64264 -78.90873 30522 ft 567 kts 65°
2026-05-08 22:24 35.65549 -78.86351 31052 ft 566 kts 65°
2026-05-08 22:24 35.66842 -78.81784 31415 ft 570 kts 65°
2026-05-08 22:24 35.68141 -78.77179 31895 ft 571 kts 66°
2026-05-08 22:24 35.69440 -78.72575 32365 ft 572 kts 66°
2026-05-08 22:25 35.70737 -78.67945 32908 ft 571 kts 66°
2026-05-08 22:25 35.72031 -78.63330 33431 ft 570 kts 66°
2026-05-08 22:25 35.73313 -78.58730 33913 ft 572 kts 65°
2026-05-08 22:25 35.74606 -78.54104 34452 ft 572 kts 66°
2026-05-08 22:26 35.75886 -78.49531 34970 ft 572 kts 65°
2026-05-08 22:26 35.77172 -78.44913 35494 ft 572 kts 66°
2026-05-08 22:26 35.78453 -78.40293 36072 ft 570 kts 65°
2026-05-08 22:26 35.79721 -78.35701 36651 ft 567 kts 64°
2026-05-08 22:27 35.81012 -78.31065 37122 ft 565 kts 66°
2026-05-08 22:27 35.82288 -78.26497 37392 ft 568 kts 65°
2026-05-08 22:27 35.83559 -78.21897 37646 ft 570 kts 65°
2026-05-08 22:27 35.84826 -78.17298 37972 ft 571 kts 66°
2026-05-08 22:28 35.86127 -78.12612 38223 ft 573 kts 65°
2026-05-08 22:28 35.87401 -78.07972 38443 ft 575 kts 65°
2026-05-08 22:28 35.88680 -78.03308 38685 ft 577 kts 65°
2026-05-08 22:28 35.89965 -77.98627 38903 ft 578 kts 65°
2026-05-08 22:29 35.91244 -77.93944 38990 ft 579 kts 66°
2026-05-08 22:29 35.93808 -77.84560 38998 ft 580 kts 64°
2026-05-08 22:30 35.96606 -77.75326 38990 ft 570 kts 56°
2026-05-08 22:30 36.00466 -77.66976 38995 ft 554 kts 44°
2026-05-08 22:31 36.05280 -77.59787 38994 ft 537 kts 33°
2026-05-08 22:31 36.10381 -77.53155 39000 ft 536 kts 32°
2026-05-08 22:32 36.15487 -77.46426 38996 ft 536 kts 34°
2026-05-08 22:32 36.20546 -77.39629 38993 ft 536 kts 34°
2026-05-08 22:33 36.25608 -77.32787 38984 ft 536 kts 34°
2026-05-08 22:33 36.30653 -77.26000 38990 ft 533 kts 33°
2026-05-08 22:34 36.35957 -77.19751 38990 ft 523 kts 28°
2026-05-08 22:34 36.41376 -77.13741 38993 ft 521 kts 27°
2026-05-08 22:35 36.46765 -77.07739 38992 ft 521 kts 27°
2026-05-08 22:35 36.52140 -77.01721 38993 ft 520 kts 27°
2026-05-08 22:36 36.57471 -76.95725 38989 ft 521 kts 27°
2026-05-08 22:36 36.62809 -76.89706 39000 ft 520 kts 27°
2026-05-08 22:37 36.68151 -76.83672 39005 ft 518 kts 27°
2026-05-08 22:37 36.73511 -76.77613 39003 ft 519 kts 28°
2026-05-08 22:38 36.78832 -76.71575 39000 ft 518 kts 28°
2026-05-08 22:38 36.84141 -76.65540 39005 ft 518 kts 28°
2026-05-08 22:39 36.89487 -76.59458 38990 ft 518 kts 28°
2026-05-08 22:39 36.94796 -76.53394 39004 ft 516 kts 28°
2026-05-08 22:40 37.00093 -76.47340 38996 ft 516 kts 28°
2026-05-08 22:40 37.05365 -76.41306 39004 ft 516 kts 28°
2026-05-08 22:41 37.10656 -76.35233 39005 ft 515 kts 28°
2026-05-08 22:41 37.15955 -76.29151 38997 ft 518 kts 29°
2026-05-08 22:42 37.21205 -76.23103 38994 ft 519 kts 29°
2026-05-08 22:42 37.26528 -76.16950 38999 ft 518 kts 29°
2026-05-08 22:43 37.31808 -76.10838 38992 ft 516 kts 29°
2026-05-08 22:43 37.37080 -76.04733 38995 ft 517 kts 29°
2026-05-08 22:44 37.42334 -75.98637 38991 ft 519 kts 29°
2026-05-08 22:44 37.47616 -75.92478 38993 ft 516 kts 29°
2026-05-08 22:45 37.52961 -75.86607 38999 ft 505 kts 23°
2026-05-08 22:45 37.58696 -75.81682 39002 ft 491 kts 15°
2026-05-08 22:46 37.64517 -75.77364 39001 ft 488 kts 14°
2026-05-08 22:46 37.70366 -75.73028 39001 ft 487 kts 14°
2026-05-08 22:47 37.76185 -75.68671 39002 ft 488 kts 15°
2026-05-08 22:47 37.82037 -75.64263 39007 ft 489 kts 15°
2026-05-08 22:48 37.87816 -75.59545 39008 ft 498 kts 19°
2026-05-08 22:48 37.93491 -75.54573 39004 ft 497 kts 19°
2026-05-08 22:49 37.99171 -75.49596 39006 ft 494 kts 19°
2026-05-08 22:49 38.07632 -75.42282 38998 ft 491 kts 18°
2026-05-08 22:50 38.13446 -75.37597 39001 ft 492 kts 17°
2026-05-08 22:50 38.19085 -75.33115 38988 ft 486 kts 14°
2026-05-08 22:51 38.25039 -75.29427 38983 ft 467 kts
2026-05-08 22:51 38.31135 -75.26939 38994 ft 449 kts 357°
2026-05-08 22:52 38.37199 -75.25491 38981 ft 439 kts 353°
2026-05-08 22:52 38.43223 -75.24283 38986 ft 440 kts 353°
2026-05-08 22:53 38.49298 -75.23029 38976 ft 441 kts 353°
2026-05-08 22:53 38.55355 -75.21757 38959 ft 444 kts 354°
2026-05-08 22:54 38.61422 -75.20474 38960 ft 442 kts 354°
2026-05-08 22:54 38.64471 -75.19640 38962 ft 453 kts 359°
2026-05-08 22:54 38.67509 -75.18473 38965 ft 467 kts
2026-05-08 22:55 38.73538 -75.14996 38961 ft 486 kts 15°
2026-05-08 22:55 38.79240 -75.10045 38953 ft 502 kts 24°
2026-05-08 22:56 38.84748 -75.04562 38955 ft 504 kts 25°
2026-05-08 22:56 38.90300 -74.99036 38953 ft 503 kts 25°
2026-05-08 22:57 38.93051 -74.96313 38831 ft 498 kts 25°
2026-05-08 22:57 38.95776 -74.93619 38366 ft 496 kts 25°
2026-05-08 22:57 38.98511 -74.90927 37568 ft 498 kts 24°
2026-05-08 22:57 39.01245 -74.88238 36775 ft 499 kts 25°
2026-05-08 22:58 39.03997 -74.85523 36040 ft 499 kts 25°
2026-05-08 22:58 39.06738 -74.82811 35423 ft 499 kts 25°
2026-05-08 22:58 39.09473 -74.80082 35056 ft 498 kts 27°
2026-05-08 22:58 39.12177 -74.77235 34440 ft 501 kts 27°
2026-05-08 22:59 39.14826 -74.74379 33459 ft 501 kts 28°
2026-05-08 22:59 39.17276 -74.71725 32065 ft 504 kts 28°
2026-05-08 22:59 39.19872 -74.68913 30444 ft 506 kts 29°
2026-05-08 22:59 39.22547 -74.66013 29171 ft 495 kts 30°
2026-05-08 23:00 39.25123 -74.63191 28447 ft 473 kts 30°
2026-05-08 23:00 39.27596 -74.60485 27256 ft 465 kts 29°
2026-05-08 23:00 39.30044 -74.57838 25894 ft 461 kts 30°
2026-05-08 23:00 39.32494 -74.55188 24690 ft 451 kts 30°
2026-05-08 23:01 39.34850 -74.52625 24167 ft 437 kts 30°
2026-05-08 23:01 39.37154 -74.50116 23768 ft 428 kts 30°
2026-05-08 23:01 39.39404 -74.47669 23339 ft 423 kts 30°
2026-05-08 23:01 39.41669 -74.45205 22896 ft 419 kts 30°
2026-05-08 23:02 39.43891 -74.42787 22443 ft 415 kts 30°
2026-05-08 23:02 39.46068 -74.40411 21995 ft 412 kts 30°
2026-05-08 23:02 39.48246 -74.38030 21555 ft 408 kts 30°
2026-05-08 23:02 39.50422 -74.35652 21114 ft 405 kts 30°
2026-05-08 23:03 39.52562 -74.33315 20659 ft 401 kts 31°
2026-05-08 23:03 39.54684 -74.30991 20216 ft 398 kts 31°
2026-05-08 23:03 39.56779 -74.28691 19772 ft 395 kts 31°
2026-05-08 23:03 39.58881 -74.26384 19334 ft 392 kts 31°
2026-05-08 23:04 39.60927 -74.24139 18908 ft 389 kts 31°
2026-05-08 23:04 39.62993 -74.21869 18474 ft 386 kts 32°
2026-05-08 23:04 39.65037 -74.19622 18036 ft 383 kts 32°
2026-05-08 23:04 39.67055 -74.17402 17612 ft 380 kts 32°
2026-05-08 23:05 39.69036 -74.15218 17183 ft 378 kts 32°
2026-05-08 23:05 39.71050 -74.13000 16731 ft 376 kts 32°
2026-05-08 23:05 39.73031 -74.10812 16286 ft 373 kts 32°
2026-05-08 23:05 39.75001 -74.08640 15857 ft 371 kts 32°
2026-05-08 23:06 39.76946 -74.06489 15443 ft 368 kts 32°
2026-05-08 23:06 39.78899 -74.04328 15003 ft 366 kts 33°
2026-05-08 23:06 39.80812 -74.02210 14577 ft 363 kts 32°
2026-05-08 23:06 39.82731 -74.00120 14152 ft 358 kts 30°
2026-05-08 23:07 39.84736 -73.98237 13717 ft 351 kts 25°
2026-05-08 23:07 39.86807 -73.96626 13263 ft 345 kts 21°
2026-05-08 23:07 39.88918 -73.95129 12816 ft 342 kts 21°
2026-05-08 23:07 39.90986 -73.93682 12384 ft 340 kts 21°
2026-05-08 23:08 39.93069 -73.92223 11945 ft 337 kts 21°
2026-05-08 23:08 39.95127 -73.90772 11515 ft 334 kts 21°
2026-05-08 23:08 39.97145 -73.89341 11237 ft 326 kts 21°
2026-05-08 23:08 39.99072 -73.87971 11104 ft 313 kts 21°
2026-05-08 23:09 40.00965 -73.86639 11012 ft 298 kts 19°
2026-05-08 23:09 40.02806 -73.85540 11012 ft 292 kts 15°
2026-05-08 23:09 40.04689 -73.84459 10931 ft 294 kts 17°
2026-05-08 23:09 40.06539 -73.83345 10804 ft 293 kts 17°
2026-05-08 23:10 40.08385 -73.82224 10677 ft 293 kts 18°
2026-05-08 23:10 40.10252 -73.81098 10546 ft 293 kts 18°
2026-05-08 23:10 40.12091 -73.79997 10430 ft 293 kts 18°
2026-05-08 23:10 40.13960 -73.78876 10286 ft 293 kts 17°
2026-05-08 23:11 40.15840 -73.77743 10078 ft 292 kts 18°
2026-05-08 23:11 40.17682 -73.76637 9870 ft 291 kts 18°
2026-05-08 23:11 40.19517 -73.75545 9669 ft 291 kts 18°
2026-05-08 23:11 40.21341 -73.74376 9463 ft 295 kts 27°
2026-05-08 23:12 40.22964 -73.72696 9269 ft 299 kts 35°
2026-05-08 23:12 40.24499 -73.70844 9052 ft 300 kts 37°
2026-05-08 23:12 40.26005 -73.68985 8821 ft 299 kts 37°
2026-05-08 23:12 40.27520 -73.67112 8595 ft 297 kts 37°
2026-05-08 23:13 40.29022 -73.65261 8357 ft 297 kts 38°
2026-05-08 23:13 40.30523 -73.63419 8126 ft 297 kts 37°
2026-05-08 23:13 40.32034 -73.61575 7895 ft 295 kts 37°
2026-05-08 23:13 40.33537 -73.59750 7639 ft 294 kts 37°
2026-05-08 23:14 40.35022 -73.57948 7361 ft 292 kts 37°
2026-05-08 23:14 40.36511 -73.56145 7082 ft 291 kts 37°
2026-05-08 23:14 40.38007 -73.54343 6764 ft 290 kts 37°
2026-05-08 23:14 40.39490 -73.52556 6429 ft 289 kts 37°
2026-05-08 23:15 40.40958 -73.50799 6109 ft 287 kts 37°
2026-05-08 23:15 40.42434 -73.49037 5781 ft 284 kts 37°
2026-05-08 23:15 40.43893 -73.47303 5475 ft 281 kts 37°
2026-05-08 23:15 40.45367 -73.45652 5214 ft 273 kts 28°
2026-05-08 23:16 40.47056 -73.44821 4977 ft 256 kts 360°
2026-05-08 23:16 40.48732 -73.45149 4764 ft 238 kts 330°
2026-05-08 23:16 40.50106 -73.46287 4561 ft 228 kts 319°
2026-05-08 23:16 40.51253 -73.47638 4403 ft 218 kts 308°
2026-05-08 23:17 40.52173 -73.49200 4255 ft 209 kts 302°
2026-05-08 23:17 40.52961 -73.50744 4105 ft 201 kts 300°
2026-05-08 23:17 40.53697 -73.52284 3968 ft 193 kts 299°
2026-05-08 23:17 40.54371 -73.53745 3874 ft 183 kts 298°
2026-05-08 23:18 40.55014 -73.55164 3649 ft 177 kts 298°
2026-05-08 23:18 40.55633 -73.56542 3393 ft 174 kts 298°
2026-05-08 23:18 40.56217 -73.57849 3159 ft 175 kts 298°
2026-05-08 23:18 40.56840 -73.59242 2912 ft 175 kts 298°
2026-05-08 23:19 40.57450 -73.60600 2675 ft 174 kts 299°
2026-05-08 23:19 40.58069 -73.61978 2439 ft 173 kts 299°
2026-05-08 23:19 40.58680 -73.63335 2212 ft 172 kts 300°
2026-05-08 23:19 40.59293 -73.64695 1984 ft 170 kts 300°
2026-05-08 23:20 40.59875 -73.65987 1757 ft 159 kts 300°
2026-05-08 23:20 40.60424 -73.67203 1574 ft 151 kts 300°
2026-05-08 23:20 40.60942 -73.68349 1370 ft 142 kts 301°
2026-05-08 23:20 40.61449 -73.69471 1189 ft 142 kts 301°
2026-05-08 23:21 40.61948 -73.70579 1009 ft 141 kts 301°
2026-05-08 23:21 40.62442 -73.71690 825 ft 141 kts 301°
2026-05-08 23:21 40.62943 -73.72797 640 ft 140 kts 302°
2026-05-08 23:21 40.63456 -73.73907 440 ft 140 kts 302°
2026-05-08 23:22 40.63953 -73.75002 244 ft 139 kts 302°
2026-05-08 23:22 40.64448 -73.76093 76 ft 137 kts 303°
2026-05-08 23:22 40.64921 -73.77133 22 ft 119 kts 301°
2026-05-08 23:22 40.65255 -73.77876 22 ft 69 kts 302°
2026-05-08 23:23 40.65313 -73.78075 22 ft 12 kts 273°
2026-05-08 23:23 40.65315 -73.78151 22 ft 7 kts 271°
2026-05-08 23:23 40.65316 -73.78209 22 ft 6 kts 270°
2026-05-08 23:23 40.65316 -73.78258 22 ft 5 kts 270°
2026-05-08 23:24 40.65327 -73.78315 22 ft 7 kts 299°
2026-05-08 23:24 40.65355 -73.78382 22 ft 9 kts 299°
2026-05-08 23:24 40.65355 -73.78481 22 ft 12 kts 242°
2026-05-08 23:24 40.65310 -73.78588 22 ft 14 kts 242°
2026-05-08 23:25 40.65258 -73.78710 22 ft 15 kts 240°
2026-05-08 23:25 40.65215 -73.78848 22 ft 16 kts 253°
2026-05-08 23:25 40.65118 -73.78910 22 ft 17 kts 184°
2026-05-08 23:25 40.65024 -73.78963 22 ft 12 kts 241°
2026-05-08 23:26 40.65004 -73.79047 22 ft 4 kts 324°
2026-05-08 23:26 40.65036 -73.79071 22 ft 5 kts 327°
2026-05-08 23:26 40.65051 -73.79084 22 ft 0 kts 329°
2026-05-08 23:26 40.65052 -73.79085 22 ft 0 kts 329°